Regional Weather Roundup
Issued by NWS

Home | Current Version | Previous Version | Text Only | Print | Product List | Glossary Off
Versions: 1 2 3 4 5 6 7 8 9 10 11 12 13 14 15 16 17 18 19 20 21 22 23 24 25 26 27 28 29 30 31 32 33 34 35 36 37 38 39 40 41 42 43 44 45 46 47 48 49 50

000
ASUS43 KDTX 251210
RWRMI
MICHIGAN HOURLY REGIONAL WEATHER ROUNDUP
NATIONAL WEATHER SERVICE DETROIT/PONTIAC MI
800 AM EDT MON MAY 25 2015

NOTE: "FAIR" INDICATES FEW OR NO CLOUDS BELOW 12,000 FEET WITH NO
SIGNIFICANT WEATHER AND/OR OBSTRUCTION TO VISIBILITY.

MIZ047>049-052>055-059>063-066>070-074>076-081>083-251300-
SOUTHEAST LOWER MICHIGAN

CITY           SKY/WX    TMP DP  RH WIND       PRES   REMARKS
ADRIAN         CLOUDY    69  57  65 SW9       30.02R
6HR MIN TEMP:  66; 6HR MAX TEMP:  72;

ALMA           CLOUDY    67  59  75 S9        29.94R
ANN ARBOR      CLOUDY    67  55  65 SW6       30.01R
BAD AXE        CLOUDY    65  55  67 S13       29.97S
CARO           PTSUNNY   70  58  65 S9        29.96R
DETROIT CITY   PTSUNNY   68  55  63 S8        30.02R
6HR MIN TEMP:  65; 6HR MAX TEMP:  69;

DETROIT        CLOUDY    71  55  56 S13       30.02R
6HR MIN TEMP:  65; 6HR MAX TEMP:  71;

FLINT          CLOUDY    71  55  56 S9G18     29.97S
6HR MIN TEMP:  67; 6HR MAX TEMP:  73;

GROSSE ILE     CLOUDY    64  59  82 S8        30.02R
HILLSDALE      CLOUDY    69  57  66 S9        30.01R
HOWELL         CLOUDY    68  55  62 S10       29.99R
6HR MIN TEMP:  63; 6HR MAX TEMP:  70;


CITY           SKY/WX    TMP DP  RH WIND       PRES   REMARKS
JACKSON        CLOUDY    69  58  67 S10       29.99R
6HR MIN TEMP:  68; 6HR MAX TEMP:  71;

LAMBERTVILLE   CLOUDY    72  55  56 S7        30.03R
LANSING        CLOUDY    69  58  67 S12       29.96S
6HR MIN TEMP:  66; 6HR MAX TEMP:  70;

LAPEER         FAIR      69  55  59 S9        29.99S
MASON          CLOUDY    69  58  68 S6        29.98R
MONROE         CLOUDY    70  55  60 S9        30.01S
MT. CLEMENS    PTSUNNY   67  58  73 S8        30.00R
6HR MIN TEMP:  60; 6HR MAX TEMP:  67;

PONTIAC        CLOUDY    67  53  61 S7        30.00S
6HR MIN TEMP:  64; 6HR MAX TEMP:  68;

PORT HOPE        N/A     66  55  67 VRB5      29.94S
6HR MIN TEMP:  55; 6HR MAX TEMP:  66;

PORT HURON     PTSUNNY   68  57  68 S8        30.02S
TRI CITIES     PTSUNNY   69  57  65 S13       29.94S
6HR MIN TEMP:  61; 6HR MAX TEMP:  70;

MIDLAND        FAIR      68  57  67 S7        29.92S
TROY           CLOUDY    69  53  57 S7        30.03S
SAGINAW HB     PTSUNNY   70  55  60 S15       29.94S
$$
MIZ043>046-050>051-056>058-064>065-071>073-077>080-251300-
SOUTHWEST LOWER MICHIGAN

CITY           SKY/WX    TMP DP  RH WIND       PRES   REMARKS
BATTLE CREEK   CLOUDY    71  60  68 S15       29.96S
6HR MIN TEMP:  71; 6HR MAX TEMP:  73;

BENTON HARBOR  CLOUDY    71  62  73 S13       29.90S
6HR MIN TEMP:  70; 6HR MAX TEMP:  73;

BIG RAPIDS     LGT RAIN  59  56  91 CALM      29.90S
6HR MIN TEMP:  57; 6HR MAX TEMP:  59;

COLDWATER      CLOUDY    70  58  67 S9        29.98S
6HR MIN TEMP:  69; 6HR MAX TEMP:  72;

FREMONT        CLOUDY    66  61  85 S3        29.88S
HOLLAND        LGT RAIN  71  61  70 S9        29.91R
6HR MIN TEMP:  70; 6HR MAX TEMP:  72; 6HR PCP: TRACE;

GRAND RAPIDS   CLOUDY    70  60  70 S12       29.92R
6HR MIN TEMP:  67; 6HR MAX TEMP:  71; 6HR PCP: TRACE;

IONIA          FAIR      71  60  67 S13       29.93S
KALAMAZOO      LGT RAIN  71  61  70 S14G22    29.95S
6HR MIN TEMP:  69; 6HR MAX TEMP:  72; 6HR PCP: TRACE;

LUDINGTON      CLOUDY    71  64  79 S15G21    29.86S
6HR MIN TEMP:  61; 6HR MAX TEMP:  71; 6HR PCP:  0.22;

MARSHALL       CLOUDY    70  59  68 S9        29.97S
MOUNT PLEASANT PTSUNNY   66  59  80 S5        29.92S
6HR MIN TEMP:  56; 6HR MAX TEMP:  66;

MUSKEGON       CLOUDY    72  60  66 S15       29.88S
6HR MIN TEMP:  63; 6HR MAX TEMP:  74; 6HR PCP: TRACE;

SOUTH HAVEN    CLOUDY    73  61  68 S10G20    29.90S
$$
MIZ016>042-251300-
NORTHERN LOWER MICHIGAN

CITY           SKY/WX    TMP DP  RH WIND       PRES   REMARKS
ALPENA         LGT RAIN  54  52  93 E6        29.95F
6HR MIN TEMP:  54; 6HR MAX TEMP:  58; 6HR PCP:  0.65;

BEAVER ISLAND  LGT RAIN  56  56  98 E12       29.87F
6HR MIN TEMP:  50; 6HR MAX TEMP:  56;

BELLAIRE       RAIN      61  59  94 CALM      29.87F
6HR MIN TEMP:  59; 6HR MAX TEMP:  62;

CADILLAC       CLOUDY    64  59  85 S8        29.89S
CHARLEVOIX     RAIN      59  59 100 E7        29.90S
6HR MIN TEMP:  58; 6HR MAX TEMP:  59;

FRANKFORT      CLOUDY    64  58  80 CALM      29.85S
GAYLORD        CLOUDY    58  58 100 S9        29.90F FOG
6HR MIN TEMP:  57; 6HR MAX TEMP:  58; 6HR PCP:  0.78;

GRAYLING       CLOUDY    57  57 100 E5        29.92S FOG
HARBOR SPRINGS RAIN      58  57  97 E7        29.89F
HOUGHTON LAKE  CLOUDY    61  56  83 SE5       29.92S
6HR MIN TEMP:  57; 6HR MAX TEMP:  61; 6HR PCP:  0.09;

MANISTEE       CLOUDY    61  57  88 CALM      29.86S
OSCODA         CLOUDY    52  49  90 CALM      29.94S
PELLSTON       LGT RAIN  58  57  97 E7        29.90F FOG
6HR MIN TEMP:  57; 6HR MAX TEMP:  59; 6HR PCP:  1.33;

ROGERS CITY    LGT RAIN  52  52  99 E5        29.95F
TRAVERSE CITY  CLOUDY    62  58  86 CALM      29.85F
6HR MIN TEMP:  58; 6HR MAX TEMP:  62; 6HR PCP:  0.70;

$$
MIZ007>008-015-251300-
EASTERN UPPER MICHIGAN

CITY           SKY/WX    TMP DP  RH WIND       PRES   REMARKS
KINROSS        CLOUDY    55  55 100 E13       29.93S
6HR MIN TEMP:  54; 6HR MAX TEMP:  55;

MACKINAC ISLAN LGT RAIN  55  55 100 E12G23    29.91F
6HR MIN TEMP:  47; 6HR MAX TEMP:  55; 6HR PCP:  0.68;

NEWBERRY       LGT RAIN  55  54  99 E6        29.89F
6HR MIN TEMP:  53; 6HR MAX TEMP:  55; 6HR PCP:  0.26;

S. S. MARIE    LGT RAIN  55  53  93 E7        29.93F FOG
6HR MIN TEMP:  54; 6HR MAX TEMP:  57; 6HR PCP:  0.29;

MUNISING         N/A     59  55  87 VRB6      29.84F
6HR MIN TEMP:  54; 6HR MAX TEMP:  59; 6HR PCP:  0.30;

$$
MIZ004>006-011>014-085-251300-
CENTRAL UPPER MICHIGAN

CITY           SKY/WX    TMP DP  RH WIND       PRES   REMARKS
MANISTIQUE     LGT RAIN  55  54  95 E10G17    29.86S
6HR MIN TEMP:  51; 6HR MAX TEMP:  56; 6HR PCP:  0.43;

ESCANABA       CLOUDY    55  52  88 E10       29.82F
6HR MIN TEMP:  54; 6HR MAX TEMP:  55;

MENOMINEE      CLOUDY    54  50  87 SE6       29.80S VSB 3/4
6HR MIN TEMP:  54; 6HR MAX TEMP:  55; 6HR PCP:  0.10;

SAWYER-GWINN   LGT RAIN  55  54  94 SE5       29.84F
$$
MIZ001>003-009>011-084-251300-
WESTERN UPPER MICHIGAN

CITY           SKY/WX    TMP DP  RH WIND       PRES   REMARKS
IRON MOUNTAIN  LGT RAIN  56  54  93 VRB7      29.79F
6HR MIN TEMP:  55; 6HR MAX TEMP:  56; 6HR PCP:  0.46;

HOUGHTON       LGT RAIN  54  53  97 E9        29.82F VSB 1/4
6HR MIN TEMP:  54; 6HR MAX TEMP:  59; 6HR PCP:  0.14;

COPPER HARBOR    N/A     52  51  97 CALM      29.85F
6HR MIN TEMP:  50; 6HR MAX TEMP:  63; 6HR PCP:  0.08;

IRONWOOD       CLOUDY    57  57 100 E10       29.72F
6HR MIN TEMP:  57; 6HR MAX TEMP:  57;

$$

ABBREVIATIONS USED IN REMARKS
   TC - TEMPERATURE IN CELSIUS
  WCI - WIND CHILL INDEX
   HX - HEAT INDEX
  VSB - VISIBILITY




USA.gov is the U.S. government's official web portal to all federal, state and local government web resources and services.